TimeEST,TemperatureF,Dew PointF,Humidity,Sea Level PressureIn,VisibilityMPH,Wind Direction,Wind SpeedMPH,Gust SpeedMPH,PrecipitationIn,Events,Conditions,WindDirDegrees,DateUTC
12:54 AM,53.1,41.0,64,30.14,10.0,SSE,10.4,-,0.00,,Overcast,160,2013-11-06 05:54:00
1:54 AM,54.0,41.0,62,30.11,10.0,South,9.2,-,N/A,,Overcast,170,2013-11-06 06:54:00
2:54 AM,55.0,41.0,59,30.09,10.0,South,12.7,-,N/A,,Overcast,180,2013-11-06 07:54:00
3:54 AM,55.9,43.0,62,30.06,10.0,South,12.7,-,N/A,,Overcast,190,2013-11-06 08:54:00
4:54 AM,55.9,46.0,69,30.04,10.0,South,10.4,-,0.00,,Overcast,190,2013-11-06 09:54:00
5:54 AM,55.9,48.0,75,30.02,10.0,South,12.7,-,0.00,Rain,Light Rain,190,2013-11-06 10:54:00
6:54 AM,55.9,48.0,75,30.00,10.0,South,13.8,21.9,0.00,,Overcast,190,2013-11-06 11:54:00
7:54 AM,55.0,48.0,77,30.00,10.0,South,17.3,-,0.03,Rain,Light Rain,190,2013-11-06 12:54:00
8:54 AM,55.0,48.0,77,30.00,8.0,SSW,16.1,-,0.02,Rain,Light Rain,200,2013-11-06 13:54:00
9:54 AM,55.0,48.0,77,29.99,10.0,SSW,13.8,-,0.01,Rain,Light Rain,200,2013-11-06 14:54:00
10:54 AM,55.0,48.0,77,29.97,10.0,SSW,18.4,25.3,0.01,,Overcast,200,2013-11-06 15:54:00
11:27 AM,55.4,48.2,77,29.96,10.0,SSW,17.3,28.8,0.00,,Overcast,200,2013-11-06 16:27:00
11:54 AM,55.0,50.0,83,29.95,10.0,SSW,21.9,31.1,0.00,Rain,Light Rain,200,2013-11-06 16:54:00
12:54 PM,54.0,50.0,86,29.92,9.0,SSW,20.7,27.6,0.00,,Overcast,200,2013-11-06 17:54:00
1:06 PM,53.6,51.8,94,29.91,8.0,SSW,21.9,32.2,0.00,Rain,Light Rain,210,2013-11-06 18:06:00
1:54 PM,54.0,51.1,90,29.88,10.0,SSW,18.4,27.6,0.00,Rain,Light Rain,200,2013-11-06 18:54:00
2:54 PM,55.0,52.0,89,29.92,10.0,SW,21.9,32.2,0.00,,Overcast,230,2013-11-06 19:54:00
3:54 PM,55.9,51.1,84,29.92,10.0,SW,21.9,-,N/A,,Overcast,220,2013-11-06 20:54:00
4:18 PM,55.4,51.8,88,29.92,8.0,SW,20.7,26.5,0.00,Rain,Light Rain,230,2013-11-06 21:18:00
4:54 PM,55.0,52.0,89,29.92,10.0,SW,13.8,-,0.00,,Overcast,220,2013-11-06 21:54:00
5:40 PM,53.6,51.8,94,29.93,4.0,WSW,15.0,-,0.00,Rain,Light Rain,240,2013-11-06 22:40:00
5:54 PM,54.0,52.0,93,29.93,4.0,WSW,16.1,-,0.01,Rain,Light Rain,240,2013-11-06 22:54:00
6:26 PM,50.0,46.4,87,29.95,8.0,West,20.7,35.7,0.00,Rain,Light Rain,270,2013-11-06 23:26:00
6:38 PM,50.0,46.4,87,29.96,10.0,West,21.9,28.8,0.00,,Overcast,270,2013-11-06 23:38:00
6:46 PM,48.2,46.4,93,29.95,9.0,West,18.4,28.8,0.00,,Overcast,270,2013-11-06 23:46:00
6:54 PM,48.9,46.0,90,29.99,6.0,West,19.6,-,0.00,Rain,Light Rain,260,2013-11-06 23:54:00
7:49 PM,46.4,44.6,93,30.00,6.0,West,11.5,21.9,0.04,Rain,Light Rain,280,2013-11-07 00:49:00
7:54 PM,46.0,44.1,93,30.01,7.0,West,12.7,-,0.04,Rain,Light Rain,280,2013-11-07 00:54:00
8:14 PM,44.6,42.8,93,30.02,8.0,WNW,12.7,20.7,0.02,Rain,Light Rain,300,2013-11-07 01:14:00
8:36 PM,44.6,42.8,93,30.04,10.0,WNW,13.8,23.0,0.03,Rain,Light Rain,300,2013-11-07 01:36:00
8:54 PM,44.1,41.0,89,30.02,5.0,WNW,10.4,19.6,0.04,Rain,Light Rain,300,2013-11-07 01:54:00
9:06 PM,44.6,39.2,81,30.03,10.0,WNW,11.5,-,0.00,,Overcast,300,2013-11-07 02:06:00
9:54 PM,44.1,39.9,85,30.06,10.0,WNW,9.2,-,0.00,,Overcast,300,2013-11-07 02:54:00
10:54 PM,43.0,39.9,89,30.07,10.0,NW,10.4,-,N/A,,Overcast,310,2013-11-07 03:54:00
11:54 PM,43.0,39.0,86,30.07,10.0,WNW,9.2,-,N/A,,Overcast,290,2013-11-07 04:54:00